Perry, FL

9:01 AM EST on February 26, 2017 (GMT -0500)
Perry

Weather History for K40J - December, 2011

Change the Weather History Date:

Wednesday, December 14, 2011

  Actual Average (KVLD) Record (KVLD)
Temperature  
Mean Temperature 62 °F -  
Max Temperature 75 °F 62 °F 80 °F (2000)
Min Temperature 48 °F 40 °F 21 °F (2010)
Degree Days  
Heating Degree Days 4    
Growing Degree Days 12 (Base 50)    
Moisture  
Dew Point 51 °F    
Average Humidity 71    
Maximum Humidity 89    
Minimum Humidity 44    
Precipitation  
Precipitation 0.00 in - - ()
Sea Level Pressure  
Sea Level Pressure 30.29 in    
Wind  
Wind Speed 3 mph (ENE)    
Max Wind Speed 6 mph    
Max Gust Speed -    
Averages and records for this station are not official NWS values.
T = Trace of Precipitation, MM = Missing Value Source: NWS Daily Summary

Daily Weather History Graph

Daily Weather History Graph

Search for Another Location

Airport or City:

Trip Planner

Search our weather history database for the weather conditions in past years. The results will help you decide how hot, cold, wet, or windy it might be!

Date:

Astronomy

Dec. 14, 2011 Rise Set
Actual Time 7:22 AM EST 5:35 PM EST
Civil Twilight 6:55 AM EST 6:02 PM EST
Nautical Twilight 6:25 AM EST 6:32 PM EST
Astronomical Twilight 5:56 AM EST 7:01 PM EST
Moon 9:41 PM EST (12/14) 10:17 AM EST (12/14)
Length of Visible Light 11h 06m
Length of Day
10h 13m
Waning Gibbous, 83% of the Moon is Illuminated
Dec 14
Waning Gibbous
Dec 17
Last Quarter
Dec 24
New
Jan 1
First Quarter
Jan 9
Full

Hourly Weather History & Observations

Time (EST) Temp. Dew Point Humidity Pressure Visibility Wind Dir Wind Speed Gust Speed Precip Events Conditions
12:53 AM 50.0 °F 46.9 °F 89% 30.34 in - Calm Calm - N/A   Unknown
1:53 AM 51.1 °F 46.9 °F 86% 30.33 in - NE 3.5 mph - N/A   Unknown
2:53 AM 51.1 °F 46.0 °F 83% 30.31 in - NE 3.5 mph - N/A   Unknown
3:53 AM 50.0 °F 46.0 °F 86% 30.32 in - Calm Calm - N/A   Unknown
4:53 AM 50.0 °F 45.0 °F 83% 30.31 in - Calm Calm - N/A   Unknown
5:53 AM 48.9 °F 45.0 °F 86% 30.32 in - NE 3.5 mph - N/A   Unknown
6:53 AM 50.0 °F 45.0 °F 83% 30.32 in - Calm Calm - N/A   Unknown
7:53 AM 50.0 °F 45.0 °F 83% 30.33 in - Calm Calm - N/A   Unknown
8:53 AM 55.0 °F 48.0 °F 77% 30.34 in - ENE 4.6 mph - N/A   Unknown
9:53 AM 61.0 °F 52.0 °F 72% 30.35 in - ENE 4.6 mph - N/A   Unknown
10:53 AM 68.0 °F 54.0 °F 61% 30.34 in - Variable 5.8 mph - N/A   Unknown
11:53 AM 72.0 °F 55.9 °F 57% 30.32 in - Variable 4.6 mph - N/A   Unknown
12:53 PM 73.9 °F 55.0 °F 52% 30.28 in - East 5.8 mph - N/A   Unknown
1:53 PM 73.9 °F 55.0 °F 52% 30.26 in - East 4.6 mph - N/A   Unknown
2:53 PM 73.9 °F 53.1 °F 48% 30.24 in - ESE 5.8 mph - N/A   Unknown
3:53 PM 75.0 °F 52.0 °F 44% 30.24 in - Variable 4.6 mph - N/A   Unknown
4:53 PM 73.0 °F 53.1 °F 49% 30.24 in - ENE 5.8 mph - N/A   Unknown
5:53 PM 68.0 °F 54.0 °F 61% 30.24 in - NE 3.5 mph - N/A   Unknown
6:53 PM 63.0 °F 54.0 °F 72% 30.25 in - Calm Calm - N/A   Unknown
7:53 PM 59.0 °F 53.1 °F 81% 30.27 in - Calm Calm - N/A   Unknown
8:53 PM 63.0 °F 54.0 °F 72% 30.28 in - ENE 3.5 mph - N/A   Unknown
9:53 PM 62.1 °F 55.0 °F 78% 30.28 in - East 4.6 mph - N/A   Unknown
10:53 PM 62.1 °F 55.0 °F 78% 30.28 in - Variable 4.6 mph - N/A   Unknown
11:53 PM 60.1 °F 55.0 °F 83% 30.27 in - East 3.5 mph - N/A   Unknown